Tracking 19905 objects as of 17-Oct-2019
HD Live streaming from Space Station
objects crossing your sky now

TIROS 4

Track TIROS 4 now!
10-day predictions
TIROS 4 is classified as:


NORAD ID: 226
Int'l Code: 1962-002A
Perigee: 691.0 km
Apogee: 803.0 km
Inclination: 48.3 °
Period: 99.6 minutes
Semi major axis: 7118 km
RCS: 0.8251 m2 (medium)
Launch date: February 8, 1962
Source: United States (US)
Launch site: AIR FORCE EASTERN TEST RANGE (AFETR)
aabbcc
Your satellite tracking list
Your tracking list is empty




NASA's NSSDC Master Catalog

Two Line Element Set (TLE):
1   226U 62002A   19289.33353896 -.00000121  00000-0  14049-4 0  9996
2   226  48.2961 219.3748 0078654 308.8153  50.5741 14.45658436 36786
Source of the keplerian elements: AFSPC